www.pogodaiklimat.ru

Погода и климат >> Архив погоды >> Россия >> Белгородская область >> Готня


ПОГОДА в Готне

  • Прогноз погоды в Готне
  • Монитор погоды в Готне

АРХИВ ПОГОДЫ в Готне

Время (UTC), дата Ветер
(напр.,м/с)
 
Видим.   Явления Облачность Т
(С)
Тd
(С)
f
(%)
Тe
(С)
Тes
(С)
Комфортность P
(гПа)
Po
(гПа)
Тmin
(С)
Tmax
(С)
R
(мм)
R24
(мм)
S
(см)
00 18.08 З 2 10 км 10/10 600 м
[Cb calv]
+15.8 +14.6 93 +16 +16 1009.9 983.6
03 18.08 СЗ 3 20 км 10/10 600 м
[Cb calv]
+15.0 +13.9 93 +14 +14 1010.2 983.8 +14.8
06 18.08 З 3 50 км 10/10 600 м
[Cb calv]
+16.1 +14.3 89 +16 +16 1011.1 984.7 +14.8
09 18.08 З 2 50 км 10/10 600 м
[Cb calv]
+16.7 +13.3 80 +17 +17 1012.0 985.4
12 18.08 ЮЗ 1 50 км 10/10 600 м
[Cb calv]
+17.6 +13.3 76 +19 +19 1013.1 986.8
15 18.08 СЗ 2 50 км 8/8 600 м
[Sc]
+20.2 +14.6 70 +23 +23 комфорт 1013.7 987.6
18 18.08 З 2 10 км 10/10 600 м
[Cb calv]
+16.8 +13.8 82 +17 +17 1015.1 988.7 +20.3
21 18.08 штиль 0 10 км 10/10 600 м
[Cb calv]
+16.4 +13.9 85 +16 +16 1016.3 989.8
00 19.08 СЗ 2 10 км 4/0
[Ci ing]
+12.8 +10.7 87 +12 +12 1017.0 990.1
03 19.08 С 2 20 км 10/10 600 м
[Sc]
+14.7 +13.4 92 +14 +14 1018.1 991.4 +12.3
06 19.08 СЗ 1 50 км 8/8 600 м
[Sc]
+17.2 +13.3 78 +18 +20 1019.2 992.7 +12.3
09 19.08 СВ 3 50 км 8/8 600 м
[Sc]
+21.8 +14.7 64 +25 +27 комфорт 1018.8 992.8
12 19.08 С 2 50 км 6/6 600 м
[Sc]
+23.8 +13.9 54 +26 +30 жарко 1018.8 992.9
15 19.08 С 1 50 км 3/3 1000 м
[Cu hum]
+25.1 +13.9 50 +27 +29 жарко 1018.8 993.0
18 19.08 С 1 10 км 6/0
[Ac und]
+19.1 +14.3 74 +21 +21 комфорт 1020.6 994.2 +25.5
21 19.08 С 1 10 км ясно +16.1 +12.6 80 +17 +17 1021.5 994.8
00 20.08 СЗ 2 10 км ясно +15.8 +13.3 85 +16 +16 1021.6 994.9
03 20.08 С 2 50 км ясно +14.9 +13.1 89 +15 +15 1022.1 995.4 +14.1
06 20.08 В 2 50 км ясно +21.8 +15.4 67 +25 +31 комфорт 1022.8 996.6 +14.1
09 20.08 С 2 50 км 3/3 1000 м
[Cu hum]
+26.4 +14.8 49 +29 +38 жарко 1022.3 996.5
12 20.08 С 3
{11}
50 км 4/4 1000 м
[Cu hum]
+29.1 +14.0 40 +31 +36 жарко 1021.4 995.9
15 20.08 СВ 3 50 км 3/3 1000 м
[Cu hum]
+28.2 +12.7 38 +30 +30 жарко 1021.2 995.6
18 20.08 С 2 10 км ясно +22.9 +12.6 52 +26 +26 жарко 1022.7 996.6 +29.7
21 20.08 СВ 1 10 км ясно +19.1 +12.7 66 +21 +21 комфорт 1023.4 996.9
00 21.08 СВ 1 10 км ясно +16.9 +12.9 77 +18 +18 1023.7 997.1
03 21.08 СВ 1 50 км ясно +14.7 +12.7 88 +15 +15 1024.0 997.2 +14.3
06 21.08 В 1 50 км ясно +23.8 +15.7 60 +27 +34 жарко 1023.8 997.8 +14.0
09 21.08 СВ 4 50 км 3/0
[Ci fib]
+27.4 +12.1 39 +29 +37 жарко 1022.8 997.0
12 21.08 В 4
{10}
50 км ясно +29.1 +12.6 36 +30 +37 жарко 1021.0 995.5
15 21.08 СВ 4 50 км ясно +28.4 +12.8 38 +30 +31 жарко 1020.0 994.4
18 21.08 СВ 1 10 км ясно +21.8 +13.7 60 +25 +25 комфорт 1020.8 994.7 +29.3
21 21.08 СВ 1 10 км ясно +18.5 +13.2 71 +20 +20 1021.3 994.8
00 22.08 СВ 1 10 км ясно +16.7 +12.9 78 +18 +18 1021.1 994.5
03 22.08 СВ 1 50 км ясно +14.1 +11.9 87 +14 +14 1021.0 994.2 +14.1
06 22.08 В 2 50 км 4/0
[Ci ing]
+23.5 +16.3 64 +27 +32 душно 1020.5 994.6 +14.1
09 22.08 В 4 50 км 6/0
[Ci ing]
+28.1 +14.3 43 +30 +38 жарко 1019.9 994.3
12 22.08 СВ 3 50 км 8/0
[Ci ing]
+29.8 +12.7 35 +31 +37 жарко 1019.4 994.0
15 22.08 СВ 3 50 км 8/0
[Ci ing]
+28.9 +13.9 40 +31 +32 жарко 1019.4 993.9
18 22.08 С 1 10 км 3/0
[Ci ing]
+22.2 +13.2 57 +25 +25 комфорт 1020.7 994.6 +30.0
21 22.08 С 4 10 км ясно +22.0 +18.1 79 +27 +27 душно 1021.7 995.6
00 23.08 СВ 3 10 км ясно +18.0 +16.2 89 +18 +18 1023.0 996.4
03 23.08 СВ 4 50 км 3/0
[Ci ing]
+16.4 +14.5 89 +16 +16 1023.2 996.5 +16.3
06 23.08 СВ 4 50 км 3/0
[Ci ing]
+19.3 +14.5 74 +21 +24 комфорт 1023.8 997.3 +16.3
09 23.08 С 4 50 км 4/0
[Ci ing]
+24.0 +15.8 60 +27 +35 жарко 1023.4 997.4
12 23.08 СВ 4 50 км 4/0
[Ci ing]
+27.8 +15.8 48 +31 +37 душно 1022.3 996.6
15 23.08 СВ 4 50 км 6/0
[Ci ing]
+26.6 +15.9 52 +30 +31 душно 1021.9 996.2
18 23.08 СВ 4 10 км 8/0
[Ci ing]
+22.0 +15.1 65 +26 +26 душно 1024.0 997.8 +28.4
21 23.08 СВ 3 10 км ясно +19.9 +14.0 69 +22 +22 комфорт 1023.7 997.3
00 24.08 СВ 2 10 км 4/0
[Ac und]
+17.8 +13.7 77 +18 +18 1024.0 997.4
03 24.08 СВ 3 50 км 8/0
[Ac und]
+16.3 +13.2 82 +16 +16 1024.6 997.9 +16.1
06 24.08 СВ 2 50 км 3/0
[Ac und]
+19.9 +12.0 60 +22 +26 комфорт 1024.6 998.2 +16.1
09 24.08 СВ 3 50 км 3/3 1000 м
[Cu hum]
+25.4 +13.9 49 +28 +35 жарко 1023.7 997.8
12 24.08 С 3 50 км 3/3 1000 м
[Cu hum]
+27.6 +14.1 44 +30 +35 жарко 1022.6 996.8
15 24.08 С 3 50 км ясно +27.1 +12.1 39 +28 +29 жарко 1021.9 996.2
18 24.08 С 2 10 км ясно +21.4 +10.6 50 +23 +23 комфорт 1023.2 996.9 +28.2
21 24.08 С 3 10 км ясно +18.5 +8.0 50 +19 +19 1023.6 997.0

 

Местоположение метеостанции Готня (Белгородская область, Россия): широта 50.80 долгота 35.77 высота над уровнем моря 226 м.

В архиве по умолчанию представлена погода в Готне за последнюю неделю. Архивные данные за месяц целиком и за предыдущие месяцы, начиная с января 2011 года, Вы можете получить, выбрав интересующий диапазон дат из раскрывающегося списка и нажав кнопку "Ввод!".


*Определитесь, кто Вы:
робот инопланетянин человек

Внимание! Время в таблицах - всемирное. Для получения местного времени необходимо прибавить поправку, которая равна 3 ч.

Смотрите также архив погоды в соседних городах и на ближайших метеорологических станциях:

Погода в Золочеве (Львовская область, Украина) (57 км)
Погода в Обояни (Курская область, Россия) (59 км)
Погода в Белгороде (Белгородская область, Россия) (60 км)
Погода в Боходухове (Харьковская область, Украина) (69 км)
Погода в Сумах (Сумская область, Украина) (77 км)
Погода в Лебедине (Сумская область, Украина) (94 км)
Погода в Курчатове (Курская область, Россия) (95 км)
Погода в Харькове (Харьковская область, Украина) (96 км)
Погода в Курске (Курская область, Россия) (111 км)
Погода в Коломаке (Харьковская область, Украина) (112 км)

Пояснения к столбцам:

Ветер - указаны скорость ветра в м/с - средняя за 10 мин, порывы в срок и между сроками (в фигурных скобках) и направление, откуда дует ветер: С - северный, СВ - северо-восточный, В - восточный, ЮВ - юго-восточный, Ю - южный, ЮЗ - юго-западный, З - западный, СЗ - северо-западный.
Видимость - горизонтальная дальность видимости в метрах или километрах. При видимости от 1 до 10 км при отсутствии осадков обычно наблюдается дымка, при ухудшении видимости до 1 км и менее - туман. В сухую погоду видимость может ухудшаться дымом, пылью или мглою.
Явления - указаны атмосферные явления, наблюдавшиеся в срок или в последний час перед сроком; фигурными скобками обозначены явления, наблюдавшиеся между сроками (за 1-3 часа до срока); квадратными скобками обозначены град или гололедные отложения с указанием их диаметра в мм.
Облачность - указаны через наклонную черту общая и нижняя облачность в баллах и высота нижней границы облаков в метрах; квадратными скобками обозначены формы облаков: Ci - перистые, Cs - перисто-слоистые, Cc - перисто-кучевые, Ac - высококучевые, As - высокослоистые, Sc - слоисто-кучевые, Ns - слоисто-дождевые, Cu - кучевые, Cb - кучево-дождевые. Подробнее классификацию облаков см. в Атласе облаков (PDF).
T - Температура воздуха - температура, измеренная на высоте 2 м над землей.
Td - Температура точки росы - температура, при понижении до которой содержащийся в воздухе водяной пар достигнет насыщения.
f - Относительная влажность воздуха - влажноcть воздуха, измеренная на высоте 2 м над землей.
Te - Эффективная температура - температура, которую ощущает одетый по сезону человек в тени. Характеристика душности погоды. При расчете учитывается влияние влажности воздуха и скорости ветра на теплоощущения человека.
Tes - Эффективная температура на солнце - температура, которую ощущает человек, с поправкой на солнечный нагрев. Характеристика знойности погоды. Зависит от высоты солнца над горизонтом, облачности и скорости ветра. Ночью, в пасмурную погоду, а также при ветре 12 м/с и более поправка равна нулю.
P - Атмосферное давление - приведенное к уровню моря атмосферное давление.
Po - Атмосферное давление - измеренное на уровне метеостанции атмосферное давление.
Tmin - Минимальная температура - минимум температуры воздуха на высоте 2 м над землей.
Tmax - Максимальная температура - максимум температуры воздуха на высоте 2 м над землей.
R - Количество осадков - Количество выпавших осадков за период времени, мм. При наведении курсора мыши на число - период времени, за который выпало указанное количество осадков.
R24 - Количество осадков - Количество выпавших осадков за 24 часа, мм.
S - Снежный покров - Высота снежного покрова, см. При наведении курсора мыши на число - состояние снежного покрова и степень покрытия местности в баллах.